Year,Month,Day,Hour,Minute,Value (Times are PST for temperature in C)
2007,07,14,00,00,16.40
2007,07,14,00,01,16.40
2007,07,14,00,02,16.40
2007,07,14,00,03,16.40
2007,07,14,00,04,16.40
2007,07,14,00,05,16.40
2007,07,14,00,06,16.40
2007,07,14,00,07,16.40
2007,07,14,00,08,16.30
2007,07,14,00,09,16.30
2007,07,14,00,10,16.30
2007,07,14,00,11,16.30
2007,07,14,00,12,16.30
2007,07,14,00,13,16.30
2007,07,14,01,02,15.70
2007,07,14,01,03,15.70
2007,07,14,01,04,15.70
2007,07,14,01,05,15.70
2007,07,14,01,06,15.70
2007,07,14,01,07,15.70
2007,07,14,01,08,15.70
2007,07,14,01,09,15.70
2007,07,14,01,10,15.70
2007,07,14,01,11,15.80
2007,07,14,01,12,15.80
2007,07,14,01,13,15.80
2007,07,14,01,14,15.80
2007,07,14,01,15,15.80
2007,07,14,01,16,15.80
2007,07,14,01,17,15.80
2007,07,14,01,18,15.80
2007,07,14,01,19,15.80
2007,07,14,01,20,15.80
2007,07,14,01,21,15.80
2007,07,14,01,22,15.80
2007,07,14,01,23,15.80
2007,07,14,01,24,15.80
2007,07,14,01,25,15.70
2007,07,14,01,26,15.70
2007,07,14,01,27,15.70
2007,07,14,01,28,15.70
2007,07,14,01,29,15.70
2007,07,14,01,30,15.70
2007,07,14,01,31,15.70
2007,07,14,01,32,15.70
2007,07,14,01,33,15.70
2007,07,14,01,34,15.60
2007,07,14,01,35,15.60
2007,07,14,01,36,15.60
2007,07,14,01,37,15.60
2007,07,14,01,38,15.60
2007,07,14,01,39,15.60
2007,07,14,01,40,15.60
2007,07,14,01,41,15.60
2007,07,14,01,42,15.60
2007,07,14,01,43,15.60
2007,07,14,01,44,15.60
2007,07,14,01,45,15.60
2007,07,14,01,46,15.60
2007,07,14,01,47,15.60
2007,07,14,01,48,15.60
2007,07,14,01,49,15.60
2007,07,14,01,50,15.60
2007,07,14,01,51,15.60
2007,07,14,01,52,15.60
2007,07,14,01,53,15.60
2007,07,14,01,54,15.60
2007,07,14,01,55,15.60
2007,07,14,01,56,15.60
2007,07,14,01,57,15.60
2007,07,14,01,58,15.60
2007,07,14,01,59,15.60
2007,07,14,02,00,15.60
2007,07,14,02,01,15.60
2007,07,14,02,02,15.60
2007,07,14,02,03,15.50
2007,07,14,02,04,15.50
2007,07,14,02,05,15.50
2007,07,14,02,06,15.50
2007,07,14,02,07,15.50
2007,07,14,02,08,15.50
2007,07,14,02,09,15.50
2007,07,14,02,10,15.50
2007,07,14,02,11,15.40
2007,07,14,02,12,15.40
2007,07,14,02,13,15.40
2007,07,14,02,14,15.40
2007,07,14,02,15,15.40
2007,07,14,02,16,15.40
2007,07,14,02,17,15.40
2007,07,14,02,18,15.40
2007,07,14,02,19,15.40
2007,07,14,02,20,15.40
2007,07,14,02,21,15.40
2007,07,14,02,22,15.30
2007,07,14,02,23,15.30
2007,07,14,02,24,15.30
2007,07,14,02,25,15.30
2007,07,14,02,26,15.30
2007,07,14,02,27,15.30
2007,07,14,02,28,15.30
2007,07,14,02,29,15.30
2007,07,14,02,30,15.30
2007,07,14,02,31,15.30
2007,07,14,02,32,15.20
2007,07,14,02,33,15.20
2007,07,14,02,34,15.20
2007,07,14,02,35,15.30
2007,07,14,02,36,15.30
2007,07,14,02,37,15.30
2007,07,14,02,38,15.30
2007,07,14,02,39,15.30
2007,07,14,02,40,15.30
2007,07,14,02,41,15.30
2007,07,14,02,42,15.30
2007,07,14,02,43,15.30
2007,07,14,02,44,15.30
2007,07,14,02,45,15.30
2007,07,14,02,46,15.30
2007,07,14,02,47,15.30
2007,07,14,02,48,15.20
2007,07,14,02,49,15.20
2007,07,14,02,50,15.20
2007,07,14,02,51,15.20
2007,07,14,02,52,15.10
2007,07,14,02,53,15.10
2007,07,14,02,54,15.00
2007,07,14,02,55,15.00
2007,07,14,02,56,15.00
2007,07,14,02,57,15.00
2007,07,14,02,58,15.00
2007,07,14,02,59,15.00
2007,07,14,03,00,15.00
2007,07,14,03,01,15.00
2007,07,14,03,02,15.00
2007,07,14,03,03,15.00
2007,07,14,03,04,15.00
2007,07,14,03,05,15.00
2007,07,14,03,06,15.00
2007,07,14,03,07,15.00
2007,07,14,03,08,15.00
2007,07,14,03,09,15.00
2007,07,14,03,10,15.00
2007,07,14,03,11,15.00
2007,07,14,03,12,15.00
2007,07,14,03,13,15.00
2007,07,14,03,14,15.00
2007,07,14,03,15,15.00
2007,07,14,03,16,15.00
2007,07,14,03,17,14.90
2007,07,14,03,18,14.90
2007,07,14,03,19,14.90
2007,07,14,03,20,14.90
2007,07,14,03,21,14.90
2007,07,14,03,22,14.90
2007,07,14,03,23,14.80
2007,07,14,03,24,14.80
2007,07,14,03,25,14.80
2007,07,14,03,26,14.80
2007,07,14,03,27,14.80
2007,07,14,03,28,14.80
2007,07,14,03,29,14.80
2007,07,14,03,30,14.80
2007,07,14,03,31,14.70
2007,07,14,03,32,14.70
2007,07,14,03,33,14.70
2007,07,14,03,34,14.70
2007,07,14,03,35,14.70
2007,07,14,03,36,14.60
2007,07,14,03,37,14.60
2007,07,14,03,38,14.60
2007,07,14,03,39,14.60
2007,07,14,03,40,14.50
2007,07,14,03,41,14.50
2007,07,14,03,42,14.50
2007,07,14,03,43,14.50
2007,07,14,03,44,14.40
2007,07,14,03,45,14.40
2007,07,14,03,46,14.40
2007,07,14,03,47,14.40
2007,07,14,03,48,14.40
2007,07,14,03,49,14.40
2007,07,14,03,50,14.40
2007,07,14,03,51,14.30
2007,07,14,03,52,14.30
2007,07,14,03,53,14.30
2007,07,14,03,54,14.30
2007,07,14,03,55,14.30
2007,07,14,03,56,14.30
2007,07,14,03,57,14.30
2007,07,14,03,58,14.20
2007,07,14,03,59,14.20
2007,07,14,04,00,14.20
2007,07,14,04,01,14.20
2007,07,14,04,02,14.20
2007,07,14,04,03,14.20
2007,07,14,04,04,14.10
2007,07,14,04,05,14.10
2007,07,14,04,06,14.10
2007,07,14,04,07,14.10
2007,07,14,04,08,14.10
2007,07,14,04,09,14.10
2007,07,14,04,10,14.00
2007,07,14,04,11,14.00
2007,07,14,04,12,14.00
2007,07,14,04,13,13.90
2007,07,14,04,14,13.90
2007,07,14,04,15,13.90
2007,07,14,04,16,13.90
2007,07,14,04,17,13.90
2007,07,14,04,18,13.90
2007,07,14,04,19,13.80
2007,07,14,04,20,13.80
2007,07,14,04,21,13.80
2007,07,14,04,22,13.80
2007,07,14,04,23,13.80
2007,07,14,04,24,13.80
2007,07,14,04,25,13.80
2007,07,14,04,26,13.80
2007,07,14,04,27,13.80
2007,07,14,04,28,13.80
2007,07,14,04,29,13.80
2007,07,14,04,30,13.80
2007,07,14,04,31,13.80
2007,07,14,04,32,13.80
2007,07,14,04,33,13.80
2007,07,14,04,34,13.80
2007,07,14,04,35,13.80
2007,07,14,04,36,13.80
2007,07,14,04,37,13.80
2007,07,14,04,38,13.80
2007,07,14,04,39,13.80
2007,07,14,04,40,13.80
2007,07,14,04,41,13.80
2007,07,14,04,42,13.70
2007,07,14,04,43,13.70
2007,07,14,04,44,13.70
2007,07,14,04,45,13.70
2007,07,14,04,46,13.70
2007,07,14,04,47,13.70
2007,07,14,04,48,13.60
2007,07,14,04,49,13.60
2007,07,14,04,50,13.60
2007,07,14,04,51,13.60
2007,07,14,04,52,13.60
2007,07,14,04,53,13.60
2007,07,14,04,54,13.60
2007,07,14,04,55,13.60
2007,07,14,04,56,13.60
2007,07,14,04,57,13.50
2007,07,14,04,58,13.50
2007,07,14,04,59,13.50
2007,07,14,05,00,13.60
2007,07,14,05,01,13.60
2007,07,14,05,02,13.60
2007,07,14,05,03,13.60
2007,07,14,05,04,13.60
2007,07,14,05,05,13.60
2007,07,14,05,06,13.60
2007,07,14,05,07,13.60
2007,07,14,05,08,13.60
2007,07,14,05,09,13.60
2007,07,14,05,10,13.60
2007,07,14,05,11,13.60
2007,07,14,05,12,13.60
2007,07,14,05,13,13.60
2007,07,14,05,14,13.60
2007,07,14,05,15,13.60
2007,07,14,05,16,13.60
2007,07,14,05,17,13.60
2007,07,14,05,18,13.60
2007,07,14,05,19,13.60
2007,07,14,05,20,13.60
2007,07,14,05,21,13.60
2007,07,14,05,22,13.60
2007,07,14,05,23,13.60
2007,07,14,05,24,13.60
2007,07,14,05,25,13.60
2007,07,14,05,26,13.60
2007,07,14,05,27,13.60
2007,07,14,05,28,13.60
2007,07,14,05,29,13.60
2007,07,14,05,30,13.60
2007,07,14,05,31,13.60
2007,07,14,05,32,13.60
2007,07,14,05,33,13.60
2007,07,14,05,34,13.60
2007,07,14,05,35,13.60
2007,07,14,05,36,13.60
2007,07,14,05,37,13.60
2007,07,14,05,38,13.60
2007,07,14,05,39,13.60
2007,07,14,05,40,13.60
2007,07,14,05,41,13.60
2007,07,14,05,42,13.60
2007,07,14,05,43,13.50
2007,07,14,05,44,13.50
2007,07,14,05,45,13.50
2007,07,14,05,46,13.50
2007,07,14,05,47,13.40
2007,07,14,05,48,13.40
2007,07,14,05,49,13.40
2007,07,14,05,50,13.40
2007,07,14,05,51,13.40
2007,07,14,05,52,13.40
2007,07,14,05,53,13.40
2007,07,14,05,54,13.40
2007,07,14,05,55,13.40
2007,07,14,05,56,13.40
2007,07,14,05,57,13.40
2007,07,14,05,58,13.40
2007,07,14,05,59,13.40
2007,07,14,06,00,13.40
2007,07,14,06,01,13.40
2007,07,14,06,02,13.40
2007,07,14,06,03,13.40
2007,07,14,06,04,13.40
2007,07,14,06,05,13.40
2007,07,14,06,06,13.50
2007,07,14,06,07,13.50
2007,07,14,06,08,13.50
2007,07,14,06,09,13.50
2007,07,14,06,10,13.50
2007,07,14,06,11,13.50
2007,07,14,06,12,13.50
2007,07,14,06,13,13.60
2007,07,14,06,14,13.60
2007,07,14,06,15,13.60
2007,07,14,06,16,13.60
2007,07,14,06,17,13.60
2007,07,14,06,18,13.60
2007,07,14,06,19,13.60
2007,07,14,06,20,13.70
2007,07,14,06,21,13.70
2007,07,14,06,22,13.70
2007,07,14,06,23,13.70
2007,07,14,06,24,13.70
2007,07,14,06,25,13.70
2007,07,14,06,26,13.70
2007,07,14,06,27,13.70
2007,07,14,06,28,13.70
2007,07,14,06,29,13.80
2007,07,14,06,30,13.80
2007,07,14,06,31,13.80
2007,07,14,06,32,13.80
2007,07,14,06,33,13.90
2007,07,14,06,34,13.90
2007,07,14,06,35,13.90
2007,07,14,06,36,13.90
2007,07,14,06,37,14.00
2007,07,14,06,38,14.00
2007,07,14,06,39,14.00
2007,07,14,06,40,14.00
2007,07,14,06,41,14.00
2007,07,14,06,42,14.10
2007,07,14,06,43,14.10
2007,07,14,06,44,14.10
2007,07,14,06,45,14.10
2007,07,14,06,46,14.10
2007,07,14,06,47,14.20
2007,07,14,06,48,14.20
2007,07,14,06,49,14.20
2007,07,14,06,50,14.20
2007,07,14,06,51,14.30
2007,07,14,06,52,14.30
2007,07,14,06,53,14.30
2007,07,14,06,54,14.30
2007,07,14,06,55,14.30
2007,07,14,06,56,14.40
2007,07,14,06,57,14.40
2007,07,14,06,58,14.40
2007,07,14,06,59,14.50
2007,07,14,07,00,14.60
2007,07,14,07,01,14.60
2007,07,14,07,02,14.60
2007,07,14,07,03,14.60
2007,07,14,07,04,14.70
2007,07,14,07,05,14.70
2007,07,14,07,06,14.70
2007,07,14,07,07,14.80
2007,07,14,07,08,14.90
2007,07,14,07,09,14.90
2007,07,14,07,10,15.00
2007,07,14,07,11,15.00
2007,07,14,07,12,15.00
2007,07,14,07,13,15.00
2007,07,14,07,14,15.00
2007,07,14,07,15,15.00
2007,07,14,07,16,15.00
2007,07,14,07,17,15.00
2007,07,14,07,18,15.00
2007,07,14,07,19,15.00
2007,07,14,07,20,15.00
2007,07,14,07,21,15.00
2007,07,14,07,22,15.00
2007,07,14,07,23,15.00
2007,07,14,07,24,15.00
2007,07,14,07,25,15.00
2007,07,14,07,26,15.00
2007,07,14,07,27,15.10
2007,07,14,07,28,15.20
2007,07,14,07,29,15.20
2007,07,14,07,30,15.30
2007,07,14,07,31,15.30
2007,07,14,07,32,15.40
2007,07,14,07,33,15.50
2007,07,14,07,34,15.60
2007,07,14,07,35,15.60
2007,07,14,07,36,15.70
2007,07,14,07,37,15.80
2007,07,14,07,38,15.90
2007,07,14,07,39,15.90
2007,07,14,07,40,16.00
2007,07,14,07,41,16.10
2007,07,14,07,42,16.10
2007,07,14,07,43,16.20
2007,07,14,07,44,16.30
2007,07,14,07,45,16.40
2007,07,14,07,46,16.60
2007,07,14,07,47,16.70
2007,07,14,07,48,16.80
2007,07,14,07,49,16.80
2007,07,14,07,50,17.00
2007,07,14,07,51,17.10
2007,07,14,07,52,17.10
2007,07,14,07,53,17.20
2007,07,14,07,54,17.30
2007,07,14,07,55,17.40
2007,07,14,07,56,17.50
2007,07,14,07,57,17.50
2007,07,14,07,58,17.60
2007,07,14,07,59,17.70
2007,07,14,08,00,17.70
2007,07,14,08,01,17.70
2007,07,14,08,02,17.70
2007,07,14,08,03,17.70
2007,07,14,08,04,17.70
2007,07,14,08,05,17.70
2007,07,14,08,06,17.70
2007,07,14,08,07,17.70
2007,07,14,08,08,17.70
2007,07,14,08,09,17.70
2007,07,14,08,10,17.80
2007,07,14,08,11,17.80
2007,07,14,08,12,17.90
2007,07,14,08,13,17.90
2007,07,14,08,14,18.00
2007,07,14,08,15,18.10
2007,07,14,08,16,18.10
2007,07,14,08,17,18.20
2007,07,14,08,18,18.20
2007,07,14,08,19,18.20
2007,07,14,08,20,18.20
2007,07,14,08,21,18.20
2007,07,14,08,22,18.10
2007,07,14,08,23,18.10
2007,07,14,08,24,18.10
2007,07,14,08,25,18.10
2007,07,14,08,26,18.10
2007,07,14,08,27,18.10
2007,07,14,08,28,18.10
2007,07,14,08,29,18.10
2007,07,14,08,30,18.10
2007,07,14,08,31,18.20
2007,07,14,08,32,18.20
2007,07,14,08,33,18.30
2007,07,14,08,34,18.30
2007,07,14,08,35,18.40
2007,07,14,08,36,18.50
2007,07,14,08,37,18.60
2007,07,14,08,38,18.70
2007,07,14,08,39,18.80
2007,07,14,08,40,18.90
2007,07,14,08,41,19.00
2007,07,14,08,42,19.10
2007,07,14,08,43,19.20
2007,07,14,08,44,19.20
2007,07,14,08,45,19.30
2007,07,14,08,46,19.20
2007,07,14,08,47,19.20
2007,07,14,08,48,19.20
2007,07,14,08,49,19.30
2007,07,14,08,50,19.30
2007,07,14,08,51,19.30
2007,07,14,08,52,19.30
2007,07,14,08,53,19.40
2007,07,14,08,54,19.40
2007,07,14,08,55,19.50
2007,07,14,08,56,19.60
2007,07,14,08,57,19.60
2007,07,14,08,58,19.70
2007,07,14,08,59,19.80
2007,07,14,09,00,19.90
2007,07,14,09,01,20.00
2007,07,14,09,02,20.00
2007,07,14,09,03,20.10
2007,07,14,09,04,20.00
2007,07,14,09,05,20.00
2007,07,14,09,06,19.90
2007,07,14,09,07,19.80
2007,07,14,09,08,19.80
2007,07,14,09,09,19.80
2007,07,14,09,10,19.90
2007,07,14,09,11,19.90
2007,07,14,09,12,20.00
2007,07,14,09,13,20.10
2007,07,14,09,14,20.20
2007,07,14,09,15,20.20
2007,07,14,09,16,20.30
2007,07,14,09,17,20.40
2007,07,14,09,18,20.50
2007,07,14,09,19,20.40
2007,07,14,09,20,20.40
2007,07,14,09,21,20.40
2007,07,14,09,22,20.40
2007,07,14,09,23,20.40
2007,07,14,09,24,20.40
2007,07,14,09,25,20.40
2007,07,14,09,26,20.40
2007,07,14,09,27,20.40
2007,07,14,09,28,20.40
2007,07,14,09,29,20.50
2007,07,14,09,30,20.50
2007,07,14,09,31,20.50
2007,07,14,09,32,20.50
2007,07,14,09,33,20.40
2007,07,14,09,34,20.40
2007,07,14,09,35,20.30
2007,07,14,09,36,20.30
2007,07,14,09,37,20.30
2007,07,14,09,38,20.30
2007,07,14,09,39,20.40
2007,07,14,09,40,20.50
2007,07,14,09,41,20.50
2007,07,14,09,42,20.60
2007,07,14,09,43,20.60
2007,07,14,09,44,20.60
2007,07,14,09,45,20.70
2007,07,14,09,46,20.70
2007,07,14,09,47,20.60
2007,07,14,09,48,20.60
2007,07,14,09,49,20.60
2007,07,14,09,50,20.50
2007,07,14,09,51,20.50
2007,07,14,09,52,20.50
2007,07,14,09,53,20.50
2007,07,14,09,54,20.50
2007,07,14,09,55,20.50
2007,07,14,09,56,20.50
2007,07,14,09,57,20.40
2007,07,14,09,58,20.40
2007,07,14,09,59,20.40
2007,07,14,10,00,20.40
2007,07,14,10,01,20.40
2007,07,14,10,02,20.40
2007,07,14,10,03,20.40
2007,07,14,10,04,20.50
2007,07,14,10,05,20.50
2007,07,14,10,06,20.40
2007,07,14,10,07,20.40
2007,07,14,10,08,20.40
2007,07,14,10,09,20.40
2007,07,14,10,10,20.40
2007,07,14,10,11,20.30
2007,07,14,10,12,20.30
2007,07,14,10,13,20.20
2007,07,14,10,14,20.10
2007,07,14,10,15,20.10
2007,07,14,10,16,20.10
2007,07,14,10,17,20.10
2007,07,14,10,18,20.10
2007,07,14,10,19,20.00
2007,07,14,10,20,19.90
2007,07,14,10,21,19.90
2007,07,14,10,22,19.90
2007,07,14,10,23,19.90
2007,07,14,10,24,19.90
2007,07,14,10,25,19.90
2007,07,14,10,26,20.00
2007,07,14,10,27,20.00
2007,07,14,10,28,20.00
2007,07,14,10,29,20.10
2007,07,14,10,30,20.10
2007,07,14,10,31,20.10
2007,07,14,10,32,20.20
2007,07,14,10,33,20.20
2007,07,14,10,34,20.20
2007,07,14,10,35,20.20
2007,07,14,10,36,20.20
2007,07,14,10,37,20.20
2007,07,14,10,38,20.20
2007,07,14,10,39,20.20
2007,07,14,10,40,20.10
2007,07,14,10,41,20.00
2007,07,14,10,42,20.00
2007,07,14,10,43,19.90
2007,07,14,10,44,19.90
2007,07,14,10,45,19.90
2007,07,14,10,46,19.80
2007,07,14,10,47,19.80
2007,07,14,10,48,19.80
2007,07,14,10,49,19.80
2007,07,14,10,50,19.80
2007,07,14,10,51,19.80
2007,07,14,10,52,19.80
2007,07,14,10,53,19.80
2007,07,14,10,54,19.80
2007,07,14,10,55,19.80
2007,07,14,10,56,19.90
2007,07,14,10,57,20.00
2007,07,14,10,58,20.10
2007,07,14,10,59,20.20
2007,07,14,11,00,20.20
2007,07,14,11,01,20.30
2007,07,14,11,02,20.30
2007,07,14,11,03,20.30
2007,07,14,11,04,20.20
2007,07,14,11,05,20.30
2007,07,14,11,06,20.40
2007,07,14,11,07,20.50
2007,07,14,11,08,20.50
2007,07,14,11,09,20.60
2007,07,14,11,10,20.70
2007,07,14,11,11,20.70
2007,07,14,11,12,20.80
2007,07,14,11,13,20.80
2007,07,14,11,14,21.00
2007,07,14,11,15,20.90
2007,07,14,11,16,21.00
2007,07,14,11,17,21.10
2007,07,14,11,18,21.20
2007,07,14,11,19,21.30
2007,07,14,11,20,21.30
2007,07,14,11,21,21.40
2007,07,14,11,22,21.30
2007,07,14,11,23,21.30
2007,07,14,11,24,21.20
2007,07,14,11,25,21.10
2007,07,14,11,26,21.10
2007,07,14,11,27,21.10
2007,07,14,11,28,21.10
2007,07,14,11,29,21.10
2007,07,14,11,30,21.20
2007,07,14,11,31,21.30
2007,07,14,11,32,21.40
2007,07,14,11,33,21.50
2007,07,14,11,34,21.60
2007,07,14,11,35,21.70
2007,07,14,11,36,21.80
2007,07,14,11,37,21.80
2007,07,14,11,38,21.80
2007,07,14,11,39,21.80
2007,07,14,11,40,21.60
2007,07,14,11,41,21.50
2007,07,14,11,42,21.50
2007,07,14,11,43,21.50
2007,07,14,11,44,21.60
2007,07,14,11,45,21.70
2007,07,14,11,46,21.80
2007,07,14,11,47,21.90
2007,07,14,11,48,21.90
2007,07,14,11,49,21.90
2007,07,14,11,50,21.80
2007,07,14,11,51,21.70
2007,07,14,11,52,21.70
2007,07,14,11,53,21.70
2007,07,14,11,54,21.80
2007,07,14,11,55,21.90
2007,07,14,11,56,22.00
2007,07,14,11,57,22.10
2007,07,14,11,58,22.20
2007,07,14,11,59,22.20
2007,07,14,12,00,22.30
2007,07,14,12,01,22.40
2007,07,14,12,02,22.40
2007,07,14,12,03,22.40
2007,07,14,12,04,22.30
2007,07,14,12,05,22.10
2007,07,14,12,06,21.90
2007,07,14,12,07,21.70
2007,07,14,12,08,21.50
2007,07,14,12,09,21.40
2007,07,14,12,10,21.40
2007,07,14,12,11,21.40
2007,07,14,12,12,21.50
2007,07,14,12,13,21.60
2007,07,14,12,14,21.60
2007,07,14,12,15,21.70
2007,07,14,12,16,21.90
2007,07,14,12,17,22.10
2007,07,14,12,18,22.30
2007,07,14,12,19,22.40
2007,07,14,12,20,22.50
2007,07,14,12,21,22.60
2007,07,14,12,22,22.60
2007,07,14,12,23,22.60
2007,07,14,12,24,22.30
2007,07,14,12,25,22.10
2007,07,14,12,26,22.00
2007,07,14,12,27,22.00
2007,07,14,12,28,22.00
2007,07,14,12,29,22.10
2007,07,14,12,30,22.10
2007,07,14,12,31,22.20
2007,07,14,12,32,22.20
2007,07,14,12,33,22.20
2007,07,14,12,34,22.10
2007,07,14,12,35,22.00
2007,07,14,12,36,22.10
2007,07,14,12,37,22.20
2007,07,14,12,38,22.30
2007,07,14,12,39,22.40
2007,07,14,12,40,22.60
2007,07,14,12,41,22.70
2007,07,14,12,42,22.70
2007,07,14,12,43,22.70
2007,07,14,12,44,22.80
2007,07,14,12,45,23.00
2007,07,14,12,46,23.20
2007,07,14,12,47,23.30
2007,07,14,12,48,23.40
2007,07,14,12,49,23.50
2007,07,14,12,50,23.40
2007,07,14,12,51,23.40
2007,07,14,12,52,23.40
2007,07,14,12,53,23.30
2007,07,14,12,54,23.10
2007,07,14,12,55,23.00
2007,07,14,12,56,22.90
2007,07,14,12,57,22.90
2007,07,14,12,58,23.00
2007,07,14,12,59,23.00
2007,07,14,13,00,23.10
2007,07,14,13,01,23.10
2007,07,14,13,02,23.20
2007,07,14,13,03,23.20
2007,07,14,13,04,23.30
2007,07,14,13,05,23.30
2007,07,14,13,06,23.30
2007,07,14,13,07,23.30
2007,07,14,13,08,23.20
2007,07,14,13,09,23.20
2007,07,14,13,10,23.20
2007,07,14,13,11,23.30
2007,07,14,13,12,23.30
2007,07,14,13,13,23.30
2007,07,14,13,14,23.10
2007,07,14,13,15,23.10
2007,07,14,13,16,23.10
2007,07,14,13,17,23.10
2007,07,14,13,18,23.00
2007,07,14,13,19,22.80
2007,07,14,13,20,22.60
2007,07,14,13,21,22.50
2007,07,14,13,22,22.50
2007,07,14,13,23,22.50
2007,07,14,13,24,22.60
2007,07,14,13,25,22.60
2007,07,14,13,26,22.70
2007,07,14,13,27,22.80
2007,07,14,13,28,22.90
2007,07,14,13,29,22.90
2007,07,14,13,30,23.00
2007,07,14,13,31,23.10
2007,07,14,13,32,23.10
2007,07,14,13,33,23.20
2007,07,14,13,34,23.20
2007,07,14,13,35,23.30
2007,07,14,13,36,23.40
2007,07,14,13,37,23.40
2007,07,14,13,38,23.20
2007,07,14,13,39,23.10
2007,07,14,13,40,23.00
2007,07,14,13,41,22.90
2007,07,14,13,42,22.90
2007,07,14,13,43,22.90
2007,07,14,13,44,23.00
2007,07,14,13,45,23.00
2007,07,14,13,46,23.00
2007,07,14,13,47,23.00
2007,07,14,13,48,22.90
2007,07,14,13,49,22.90
2007,07,14,13,50,23.00
2007,07,14,13,51,23.10
2007,07,14,13,52,23.10
2007,07,14,13,53,23.10
2007,07,14,13,54,23.10
2007,07,14,13,55,23.10
2007,07,14,13,56,23.20
2007,07,14,13,57,23.30
2007,07,14,13,58,23.30
2007,07,14,13,59,23.40
2007,07,14,14,00,23.50
2007,07,14,14,01,23.60
2007,07,14,14,02,23.60
2007,07,14,14,03,23.60
2007,07,14,14,04,23.80
2007,07,14,14,05,24.00
2007,07,14,14,06,24.10
2007,07,14,14,07,24.20
2007,07,14,14,08,24.10
2007,07,14,14,09,23.90
2007,07,14,14,10,23.80
2007,07,14,14,11,23.70
2007,07,14,14,12,23.60
2007,07,14,14,13,23.60
2007,07,14,14,14,23.60
2007,07,14,14,15,23.50
2007,07,14,14,16,23.50
2007,07,14,14,17,23.40
2007,07,14,14,18,23.40
2007,07,14,14,19,23.20
2007,07,14,14,20,23.10
2007,07,14,14,21,23.00
2007,07,14,14,22,23.10
2007,07,14,14,23,23.10
2007,07,14,14,24,23.20
2007,07,14,14,25,23.20
2007,07,14,14,26,23.30
2007,07,14,14,27,23.40
2007,07,14,14,28,23.40
2007,07,14,14,29,23.40
2007,07,14,14,30,23.40
2007,07,14,14,31,23.50
2007,07,14,14,32,23.60
2007,07,14,14,33,23.70
2007,07,14,14,34,23.60
2007,07,14,14,35,23.60
2007,07,14,14,36,23.50
2007,07,14,14,37,23.40
2007,07,14,14,38,23.40
2007,07,14,14,39,23.50
2007,07,14,14,40,23.50
2007,07,14,14,41,23.60
2007,07,14,14,42,23.70
2007,07,14,14,43,23.60
2007,07,14,14,44,23.60
2007,07,14,14,45,23.60
2007,07,14,14,46,23.60
2007,07,14,14,47,23.50
2007,07,14,14,48,23.50
2007,07,14,14,49,23.40
2007,07,14,14,50,23.50
2007,07,14,14,51,23.60
2007,07,14,14,52,23.70
2007,07,14,14,53,23.60
2007,07,14,14,54,23.70
2007,07,14,14,55,23.70
2007,07,14,14,56,23.60
2007,07,14,14,57,23.60
2007,07,14,14,58,23.60
2007,07,14,14,59,23.70
2007,07,14,15,00,23.80
2007,07,14,15,01,23.90
2007,07,14,15,02,24.00
2007,07,14,15,03,24.10
2007,07,14,15,04,24.30
2007,07,14,15,05,24.40
2007,07,14,15,06,24.40
2007,07,14,15,07,24.50
2007,07,14,15,08,24.60
2007,07,14,15,09,24.70
2007,07,14,15,10,24.70
2007,07,14,15,11,24.70
2007,07,14,15,12,24.60
2007,07,14,15,13,24.50
2007,07,14,15,14,24.40
2007,07,14,15,15,24.30
2007,07,14,15,16,24.10
2007,07,14,15,17,24.00
2007,07,14,15,18,24.00
2007,07,14,15,19,23.90
2007,07,14,15,20,23.90
2007,07,14,15,21,24.00
2007,07,14,15,22,24.00
2007,07,14,15,23,24.10
2007,07,14,15,24,24.20
2007,07,14,15,25,24.20
2007,07,14,15,26,24.20
2007,07,14,15,27,24.20
2007,07,14,15,28,24.20
2007,07,14,15,29,24.30
2007,07,14,15,30,24.40
2007,07,14,15,31,24.50
2007,07,14,15,32,24.50
2007,07,14,15,33,24.50
2007,07,14,15,34,24.60
2007,07,14,15,35,24.60
2007,07,14,15,36,24.60
2007,07,14,15,37,24.70
2007,07,14,15,38,24.80
2007,07,14,15,39,24.90
2007,07,14,15,40,24.90
2007,07,14,15,41,25.10
2007,07,14,15,42,25.30
2007,07,14,15,43,25.30
2007,07,14,15,44,25.30
2007,07,14,15,45,25.30
2007,07,14,15,46,25.50
2007,07,14,15,47,25.60
2007,07,14,15,48,25.70
2007,07,14,15,49,25.80
2007,07,14,15,50,25.80
2007,07,14,15,51,25.90
2007,07,14,15,52,25.90
2007,07,14,15,53,25.90
2007,07,14,15,54,25.90
2007,07,14,15,55,26.00
2007,07,14,15,56,26.00
2007,07,14,15,57,26.10
2007,07,14,15,58,26.20
2007,07,14,15,59,26.30
2007,07,14,16,00,26.30
2007,07,14,16,01,26.40
2007,07,14,16,02,26.40
2007,07,14,16,03,26.40
2007,07,14,16,04,26.50
2007,07,14,16,05,26.50
2007,07,14,16,06,26.60
2007,07,14,16,07,26.50
2007,07,14,16,08,26.40
2007,07,14,16,09,26.40
2007,07,14,16,10,26.30
2007,07,14,16,11,26.40
2007,07,14,16,12,26.40
2007,07,14,16,13,26.50
2007,07,14,16,14,26.50
2007,07,14,16,15,26.70
2007,07,14,16,16,26.80
2007,07,14,16,17,26.90
2007,07,14,16,18,26.90
2007,07,14,16,19,27.00
2007,07,14,16,20,26.90
2007,07,14,16,21,27.00
2007,07,14,16,22,27.00
2007,07,14,16,23,27.10
2007,07,14,16,24,27.10
2007,07,14,16,25,27.10
2007,07,14,16,26,27.00
2007,07,14,16,27,27.00
2007,07,14,16,28,27.00
2007,07,14,16,29,27.10
2007,07,14,16,30,27.20
2007,07,14,16,31,27.20
2007,07,14,16,32,27.20
2007,07,14,16,33,27.20
2007,07,14,16,34,27.30
2007,07,14,16,35,27.30
2007,07,14,16,36,27.30
2007,07,14,16,37,27.30
2007,07,14,16,38,27.20
2007,07,14,16,39,27.10
2007,07,14,16,40,27.10
2007,07,14,16,41,27.20
2007,07,14,16,42,27.20
2007,07,14,16,43,27.20
2007,07,14,16,44,27.20
2007,07,14,16,45,27.20
2007,07,14,16,46,27.20
2007,07,14,16,47,27.20
2007,07,14,16,48,27.10
2007,07,14,16,49,27.00
2007,07,14,16,50,27.10
2007,07,14,16,51,27.10
2007,07,14,16,52,27.00
2007,07,14,16,53,27.00
2007,07,14,16,54,27.00
2007,07,14,16,55,27.00
2007,07,14,16,56,26.90
2007,07,14,16,57,26.90
2007,07,14,16,58,26.90
2007,07,14,16,59,26.80
2007,07,14,17,00,26.70
2007,07,14,17,01,26.70
2007,07,14,17,02,26.70
2007,07,14,17,03,26.70
2007,07,14,17,04,26.60
2007,07,14,17,05,26.60
2007,07,14,17,06,26.60
2007,07,14,17,07,26.50
2007,07,14,17,08,26.50
2007,07,14,17,09,26.50
2007,07,14,17,10,26.40
2007,07,14,17,11,26.40
2007,07,14,17,12,26.30
2007,07,14,17,13,26.30
2007,07,14,17,14,26.30
2007,07,14,17,15,26.30
2007,07,14,17,16,26.30
2007,07,14,17,17,26.30
2007,07,14,17,18,26.30
2007,07,14,17,19,26.30
2007,07,14,17,20,26.30
2007,07,14,17,21,26.30
2007,07,14,17,22,26.30
2007,07,14,17,23,26.30
2007,07,14,17,24,26.30
2007,07,14,17,25,26.40
2007,07,14,17,26,26.40
2007,07,14,17,27,26.40
2007,07,14,17,28,26.40
2007,07,14,17,29,26.50
2007,07,14,17,30,26.60
2007,07,14,17,31,26.60
2007,07,14,17,32,26.50
2007,07,14,17,33,26.50
2007,07,14,17,34,26.60
2007,07,14,17,35,26.70
2007,07,14,17,36,26.70
2007,07,14,17,37,26.60
2007,07,14,17,38,26.60
2007,07,14,17,39,26.60
2007,07,14,17,40,26.60
2007,07,14,17,41,26.60
2007,07,14,17,42,26.50
2007,07,14,17,43,26.50
2007,07,14,17,44,26.50
2007,07,14,17,45,26.50
2007,07,14,17,46,26.60
2007,07,14,17,47,26.50
2007,07,14,17,48,26.50
2007,07,14,17,49,26.50
2007,07,14,17,50,26.50
2007,07,14,17,51,26.40
2007,07,14,17,52,26.40
2007,07,14,17,53,26.30
2007,07,14,17,54,26.20
2007,07,14,17,55,26.20
2007,07,14,17,56,26.20
2007,07,14,17,57,26.10
2007,07,14,17,58,26.00
2007,07,14,17,59,26.00
2007,07,14,18,00,26.00
2007,07,14,18,01,26.10
2007,07,14,18,02,26.10
2007,07,14,18,03,26.10
2007,07,14,18,04,26.10
2007,07,14,18,05,26.10
2007,07,14,18,06,26.00
2007,07,14,18,07,26.00